El Hierro > ESTACION METEOROLÓGICA Timijiraque - Valverde

DATOS ACTUALES Online

Ultima actulizacion 32 minutos

21.2 ºC

Temperatura

60

Humedad (%)

1014.99

Presión (mb)

0

Precipitación (mm)

14.3 NO

Viento (Km/h)

DATOS DIARIOS

Temperatura últimas 24 horas (ºC)

Humedad últimas 24 horas (%)

Presión atmosférica últimas 24 horas (mb)

Precipitaciones últimas 23 horas (mm)

Viento últimas 24 horas (Km/h)

Hora Temperatura (°C) ºC Precipitación (mm) mm Presión (mb) mb Humedad (%) % Viento (Km/h) km/h
29 - 00:00 20.9 0 1015 59 8.8 W
29 - 01:00 20.8 0 1015 60 11.5 W
29 - 02:00 20.9 0 1015 56 22.1 W
29 - 03:00 20.3 0 1015 61 8.9 W
29 - 04:00 20.6 0 1014 62 10.7 NO
29 - 05:00 20.1 0 1015 59 7.6 W
29 - 06:00 20.7 0 1015 59 10.3 W
29 - 07:00 19.8 0 1015 60 8.9 W
29 - 08:00 21.6 0 1015 57 4.4 W
29 - 09:00 22.1 0 1016 56 7.5 SO
29 - 10:00 23 0 1016 58 7.6 NO
29 - 11:00 22.5 0 1015 61 20.1 NO
29 - 12:00 23 0 1015 58 20 SO
29 - 13:00 22.7 0 1015 58 23.2 O
29 - 14:00 22.7 0 1015 57 12.8 N
29 - 15:00 23.4 0 1015 54 10.4 O
29 - 16:00 23.2 0 1015 55 15.3 SO
29 - 17:00 23.5 0 1015 55 8.9 SO
29 - 18:00 23 0 1014 58 12 NO
29 - 19:00 22.4 0 1014 55 21.1 O
29 - 20:00 22.3 0 1014 56 14.7 O
29 - 21:00 21.8 0 1014 56 16.3 O
29 - 22:00 21.5 0 1015 57 11.9 S
29 - 23:00 21.3 0 1015 59 11.4 NO
30 - 00:00 21.2 0 1015 60 14.3 NO
Apalmet utiliza cookies propias y de terceros para mejorar la usabilidad y la experiencia web. Política de cookies.